CW4320 Weather Reports


time (UTC)temp
C
wind
direction
speed
KPH
gust
KPH
rain 1hr
cm
rain 24hr
cm
rain mn
cm
humidity
%
barometer
mb
20190425035530 8 82 1.6 0.0 0.00 0.00 0.00 100 1000.6
20190425035020 8 83 3.2 0.0 0.00 0.00 0.00 100 1000.7
20190425034528 8 82 1.6 0.0 0.00 0.00 0.00 100 1000.7
20190425034037 8 83 1.6 0.0 0.00 0.00 0.00 100 1000.6
20190425033527 8 82 3.2 0.0 0.00 0.00 0.00 100 1000.6
20190425033022 8 82 3.2 0.0 0.00 0.00 0.00 100 1000.6
20190425032528 8 82 3.2 0.0 0.00 0.00 0.00 100 1000.7
20190425032034 8 81 1.6 0.0 0.00 0.00 0.00 100 1000.7
20190425031521 8 82 1.6 0.0 0.00 0.00 0.00 100 1000.7
20190425031040 8 82 1.6 0.0 0.00 0.00 0.00 100 1000.7
20190425030530 8 82 1.6 0.0 0.00 0.00 0.00 100 1000.7
20190425030018 8 83 0.0 0.0 0.00 0.00 0.00 100 1000.7
20190425025527 9 82 1.6 0.0 0.00 0.00 0.00 100 1000.6
20190425025020 9 82 3.2 0.0 0.00 0.00 0.00 100 1000.6
20190425024531 9 79 4.8 8.0 0.00 0.00 0.00 100 1000.5
20190425024025 9 87 4.8 8.0 0.00 0.00 0.00 100 1000.4
20190425023526 9 94 4.8 8.0 0.00 0.00 0.00 100 1000.5
20190425023028 10 94 6.4 8.0 0.00 0.00 0.00 100 1000.3
20190425022535 10 96 4.8 9.7 0.00 0.00 0.00 100 1000.4
20190425022037 10 95 4.8 9.7 0.00 0.00 0.00 100 1000.3
20190425021523 10 95 4.8 8.0 0.00 0.00 0.00 100 1000.4
20190425021058 10 98 6.4 11.3 0.00 0.00 0.00 100 1000.4
20190425020524 10 110 8.0 16.1 0.00 0.00 0.00 100 1000.4
20190425020027 10 120 12.9 16.1 0.00 0.00 0.00 100 1000.6
20190425015531 9 121 4.8 9.7 0.00 0.00 0.00 100 1000.5
20190425015032 9 98 4.8 8.0 0.00 0.00 0.00 100 1000.5
20190425014540 9 98 4.8 8.0 0.00 0.00 0.00 100 1000.6
20190425014022 10 100 4.8 6.4 0.00 0.00 0.00 100 1000.6
20190425013525 10 100 3.2 8.0 0.00 0.00 0.00 100 1000.6
20190425013027 9 100 4.8 8.0 0.00 0.00 0.00 100 1000.6
20190425012532 9 56 3.2 6.4 0.00 0.00 0.00 100 1000.4
20190425012034 9 56 0.0 0.0 0.00 0.00 0.00 100 1000.5
20190425011539 9 54 0.0 4.8 0.00 0.00 0.00 100 1000.6
20190425011057 10 56 1.6 6.4 0.00 0.00 0.00 100 1000.5
20190425010539 10 55 1.6 8.0 0.00 0.00 0.00 100 1000.6
20190425010024 10 55 4.8 8.0 0.00 0.00 0.00 100 1000.6
20190425005527 10 49 4.8 6.4 0.00 0.00 0.00 100 1000.4
20190425005029 10 49 0.0 4.8 0.00 0.00 0.00 100 1000.3
20190425004537 10 49 0.0 4.8 0.00 0.00 0.00 100 1000.2
20190425004039 10 47 1.6 3.2 0.00 0.00 0.00 100 1000.2
20190425003524 10 48 0.0 6.4 0.00 0.00 0.00 100 1000.1
20190425003026 10 49 4.8 8.0 0.00 0.00 0.00 100 999.9
20190425002527 10 49 3.2 8.0 0.00 0.00 0.00 100 1000.0
20190425002030 10 58 3.2 6.4 0.00 0.00 0.00 100 1000.2
20190425001535 10 105 0.0 0.0 0.00 0.00 0.00 100 1000.2
20190425000523 10 105 0.0 0.0 0.00 0.00 0.00 100 1000.1
20190425000022 10 105 0.0 0.0 0.00 0.00 0.00 100 1000.2
20190424235529 10 104 0.0 0.0 0.00 0.00 0.05 100 1000.2
20190424235035 11 105 0.0 6.4 0.00 0.00 0.05 100 1000.1
20190424234523 11 105 0.0 9.7 0.00 0.00 0.05 100 1000.1
20190424234033 11 104 4.8 9.7 0.00 0.00 0.05 100 1000.1
20190424233537 11 100 8.0 9.7 0.00 0.00 0.05 100 1000.1
20190424233021 11 77 6.4 8.0 0.00 0.00 0.05 100 1000.0
20190424232526 11 309 0.0 0.0 0.00 0.00 0.05 100 1000.2
20190424232030 11 309 0.0 0.0 0.00 0.00 0.05 100 1000.1
20190424231539 10 309 0.0 0.0 0.00 0.00 0.05 99 1000.1
20190424231057 10 310 0.0 4.8 0.00 0.00 0.05 99 999.9
20190424230521 11 308 0.0 4.8 0.00 0.00 0.05 99 999.7
20190424230024 11 309 1.6 3.2 0.00 0.00 0.05 99 999.7
20190424225531 11 309 0.0 4.8 0.00 0.00 0.05 98 999.5
20190424225031 11 309 1.6 4.8 0.00 0.00 0.05 98 999.6
20190424224524 11 308 0.0 0.0 0.00 0.00 0.05 98 999.9
20190424224027 11 309 0.0 0.0 0.00 0.00 0.05 97 1000.0
20190424223535 11 308 0.0 0.0 0.00 0.00 0.05 97 999.8
20190424223037 11 307 0.0 0.0 0.00 0.00 0.05 97 999.9
20190424222525 11 309 0.0 0.0 0.00 0.00 0.05 96 999.9
20190424222030 11 309 0.0 6.4 0.00 0.00 0.05 96 1000.1
20190424221535 11 308 1.6 9.7 0.00 0.00 0.05 96 999.8
20190424221048 11 311 6.4 9.7 0.00 0.00 0.05 96 999.7
20190424220533 11 309 0.0 11.3 0.00 0.00 0.05 96 999.5
20190424220058 11 309 6.4 11.3 0.00 0.00 0.03 95 999.6
20190424215527 11 295 4.8 9.7 0.00 0.00 0.03 95 999.7
20190424215027 11 297 0.0 4.8 0.00 0.00 0.03 94 999.7
20190424214537 12 298 3.2 8.0 0.00 0.00 0.03 94 999.6
20190424214101 12 297 1.6 11.3 0.00 0.00 0.03 93 999.7
20190424213529 12 304 4.8 11.3 0.00 0.00 0.03 93 999.7
20190424213029 12 316 1.6 9.7 0.00 0.00 0.00 92 999.5
20190424212559 12 301 0.0 0.0 0.00 0.00 0.00 91 999.4
20190424212022 12 300 0.0 0.0 0.00 0.00 0.00 90 999.3
20190424211531 12 302 0.0 0.0 0.00 0.00 0.00 90 999.5
20190424211051 12 300 0.0 0.0 0.00 0.00 0.00 89 999.3
20190424210555 12 302 0.0 0.0 0.00 0.00 0.00 88 999.2
20190424210059 12 303 0.0 0.0 0.00 0.00 0.00 86 999.1
20190424205530 12 302 0.0 0.0 0.00 0.00 0.00 84 999.0
20190424205036 12 301 0.0 0.0 0.00 0.00 0.00 83 999.1
20190424204526 12 302 0.0 3.2 0.00 0.00 0.00 82 999.2
20190424204030 12 360 0.0 6.4 0.00 0.00 0.00 81 999.4
20190424203559 12 300 1.6 11.3 0.00 0.00 0.00 79 999.1
20190424203024 12 304 6.4 12.9 0.00 0.00 0.00 78 999.0
20190424202532 12 276 1.6 12.9 0.00 0.00 0.00 77 999.1
20190424202036 12 271 3.2 9.7 0.00 0.00 0.00 76 999.0
20190424201527 12 283 1.6 9.7 0.00 0.00 0.00 76 998.8
20190424201044 12 287 4.8 9.7 0.00 0.00 0.00 76 998.7
20190424200532 12 281 0.0 8.0 0.00 0.00 0.00 75 998.6
20190424200055 13 281 3.2 8.0 0.00 0.00 0.00 75 998.6
20190424195527 13 278 0.0 11.3 0.00 0.00 0.00 75 998.3
20190424195031 13 279 3.2 17.7 0.00 0.00 0.00 75 998.1
20190424194523 13 303 3.2 17.7 0.00 0.00 0.00 75 998.2
20190424194027 13 297 8.0 17.7 0.00 0.00 0.00 75 998.1
20190424193534 13 276 4.8 16.1 0.00 0.00 0.00 75 997.9
20190424193039 13 303 6.4 14.5 0.00 0.00 0.00 75 997.7
20190424192529 13 307 6.4 14.5 0.00 0.00 0.00 74 997.7
20190424192030 13 283 3.2 14.5 0.00 0.00 0.00 74 997.6
20190424191535 13 287 4.8 11.3 0.00 0.00 0.00 74 997.6
20190424191051 13 275 4.8 11.3 0.00 0.00 0.00 74 997.5
20190424190537 13 273 1.6 6.4 0.00 0.00 0.00 74 997.4
20190424190100 13 259 1.6 4.8 0.00 0.00 0.00 74 997.2
20190424185544 13 261 0.0 4.8 0.00 0.00 0.00 74 997.1
20190424185026 13 258 0.0 3.2 0.00 0.00 0.00 74 996.9
20190424184534 13 262 0.0 0.0 0.00 0.00 0.00 73 996.8
20190424184057 13 259 0.0 6.4 0.00 0.00 0.00 73 996.6
20190424183530 14 260 0.0 6.4 0.00 0.00 0.00 73 996.3
20190424183028 14 312 0.0 8.0 0.00 0.00 0.00 73 996.1
20190424182039 15 318 1.6 11.3 0.00 0.00 0.00 72 996.0
20190424181527 15 323 6.4 11.3 0.00 0.00 0.00 71 995.7
20190424181059 15 324 3.2 19.3 0.00 0.00 0.00 70 995.5
20190424180539 16 288 9.7 30.6 0.00 0.00 0.00 68 995.5
20190424180102 16 295 20.9 30.6 0.00 0.00 0.00 65 995.5
20190424175539 17 224 4.8 14.5 0.00 0.00 0.00 54 995.0
20190424175022 17 253 4.8 9.7 0.00 0.00 0.00 52 994.5
20190424174528 17 298 3.2 19.3 0.00 0.00 0.00 50 994.4
20190424174029 17 235 6.4 22.5 0.00 0.00 0.00 47 994.4
20190424173534 17 189 12.9 24.1 0.00 0.00 0.00 45 994.2
20190424173037 17 178 16.1 25.7 0.00 0.00 0.00 45 993.9
20190424172536 17 198 9.7 27.4 0.00 0.00 0.00 45 993.6
20190424172035 17 158 16.1 27.4 0.00 0.00 0.00 44 993.5
20190424171542 17 163 14.5 27.4 0.00 0.00 0.00 47 993.4
20190424171059 17 195 9.7 35.4 0.00 0.00 0.00 44 993.1
20190424170530 17 195 17.7 35.4 0.00 0.00 0.00 44 993.0
20190424170034 17 140 19.3 33.8 0.00 0.00 0.00 44 992.9
20190424165539 17 158 20.9 33.8 0.00 0.00 0.00 44 992.7
20190424165036 17 204 11.3 25.7 0.00 0.00 0.00 45 992.8
20190424164534 17 177 12.9 0.0 0.00 0.00 0.00 45 992.8
20190424164113 17 193 12.9 27.4 0.00 0.00 0.00 45 992.7
20190424163538 17 172 14.5 29.0 0.00 0.00 0.00 46 992.4
20190424163038 17 113 16.1 32.2 0.00 0.00 0.00 45 992.7
20190424162523 18 210 11.3 32.2 0.00 0.00 0.00 44 992.8
20190424162052 18 190 14.5 16.1 0.00 0.00 0.00 43 992.4
20190424161539 18 144 17.7 0.0 0.00 0.00 0.00 43 992.0
20190424161058 18 181 16.1 35.4 0.00 0.00 0.00 40 992.3
20190424160537 18 152 17.7 30.6 0.00 0.00 0.00 41 992.3
20190424160036 18 198 11.3 30.6 0.00 0.00 0.00 43 992.4
20190424155540 18 131 16.1 27.4 0.00 0.00 0.00 46 992.6
20190424155043 18 157 9.7 19.3 0.00 0.00 0.00 48 992.8
20190424154522 18 145 8.0 0.0 0.00 0.00 0.00 49 993.1
20190424154027 18 157 9.7 0.0 0.00 0.00 0.00 49 993.3
20190424153521 18 176 11.3 0.0 0.00 0.00 0.00 49 993.4
20190424153032 18 173 9.7 0.0 0.00 0.00 0.00 49 993.3
20190424152537 18 186 4.8 0.0 0.00 0.00 0.00 52 993.3
20190424152025 18 194 4.8 0.0 0.00 0.00 0.00 52 993.0
20190424151531 18 158 3.2 0.0 0.00 0.00 0.00 53 992.8
20190424151048 18 156 6.4 0.0 0.00 0.00 0.00 52 992.6
20190424150538 18 160 8.0 0.0 0.00 0.00 0.00 53 992.9
20190424150027 18 155 9.7 0.0 0.00 0.00 0.00 53 993.0
20190424145534 18 151 11.3 0.0 0.00 0.00 0.00 53 993.1
20190424145028 18 168 9.7 0.0 0.00 0.00 0.00 54 993.3
20190424144536 18 153 11.3 0.0 0.00 0.00 0.00 54 993.4
20190424144034 18 161 14.5 0.0 0.00 0.00 0.00 56 993.4
20190424143529 17 141 16.1 0.0 0.00 0.00 0.00 52 993.7
20190424143039 17 192 14.5 0.0 0.00 0.00 0.00 53 993.9
20190424142526 17 181 14.5 0.0 0.00 0.00 0.00 53 993.9
20190424142030 17 174 14.5 0.0 0.00 0.00 0.00 53 993.9
20190424141529 17 186 14.5 0.0 0.00 0.00 0.00 52 993.7
20190424141050 17 144 14.5 0.0 0.00 0.00 0.00 54 993.6
20190424140539 17 227 14.5 0.0 0.00 0.00 0.00 53 993.7
20190424140026 17 159 12.9 0.0 0.00 0.00 0.00 53 993.7
20190424135534 17 144 11.3 0.0 0.00 0.00 0.00 54 993.7
20190424135041 17 148 11.3 22.5 0.00 0.00 0.00 53 993.7
20190424134529 17 131 8.0 19.3 0.00 0.00 0.00 55 993.9
20190424134027 17 181 8.0 24.1 0.00 0.00 0.00 54 993.9
20190424133532 17 186 8.0 24.1 0.00 0.00 0.00 53 993.9
20190424133036 17 160 17.7 30.6 0.00 0.00 0.00 53 993.9
20190424132530 17 195 9.7 30.6 0.00 0.00 0.00 53 993.9
20190424132025 17 159 14.5 30.6 0.00 0.00 0.00 52 993.9
20190424131533 17 161 14.5 38.6 0.00 0.00 0.00 52 993.9
20190424131057 17 127 22.5 40.2 0.00 0.00 0.00 51 993.9
20190424130535 17 209 17.7 41.8 0.00 0.00 0.00 51 994.0
20190424130030 17 190 27.4 41.8 0.00 0.00 0.00 49 993.9
20190424125535 17 204 25.7 41.8 0.00 0.00 0.00 49 993.9
20190424124525 17 176 24.1 41.8 0.00 0.00 0.00 51 993.9
20190424124026 17 229 22.5 41.8 0.00 0.00 0.00 50 993.9
20190424123533 17 178 24.1 41.8 0.00 0.00 0.00 51 993.9
20190424123034 17 162 17.7 32.2 0.00 0.00 0.00 52 993.9
20190424122533 16 127 14.5 53.1 0.00 0.00 0.00 54 994.0
20190424122028 16 175 29.0 53.1 0.00 0.00 0.00 50 994.1
20190424121530 16 200 22.5 40.2 0.00 0.00 0.00 52 994.1
20190424121103 16 171 20.9 45.1 0.00 0.00 0.00 53 994.3
20190424120526 16 200 27.4 56.3 0.00 0.00 0.00 51 994.4
20190424120024 16 205 16.1 56.3 0.00 0.00 0.00 52 994.3
20190424115531 16 157 25.7 43.5 0.00 0.00 0.00 52 994.3
20190424115024 16 228 22.5 43.5 0.00 0.00 0.00 53 994.4
20190424114541 15 149 19.3 46.7 0.00 0.00 0.00 53 994.4
20190424114023 15 175 19.3 46.7 0.00 0.00 0.00 53 994.5
20190424113530 15 186 19.3 59.5 0.00 0.00 0.00 54 994.4
20190424113034 15 171 20.9 59.5 0.00 0.00 0.00 53 994.5
20190424112540 15 155 16.1 51.5 0.00 0.00 0.00 54 994.5
20190424112027 14 205 25.7 51.5 0.00 0.00 0.00 53 994.7
20190424111524 14 164 22.5 0.0 0.00 0.00 0.00 53 994.8
20190424111148 14 131 19.3 35.4 0.00 0.00 0.00 54 994.9
20190424110538 13 168 24.1 45.1 0.00 0.00 0.00 54 994.9
20190424110030 13 207 20.9 46.7 0.00 0.00 0.00 54 994.9
20190424105535 13 193 32.2 46.7 0.00 0.00 0.00 53 995.0
20190424105034 14 177 25.7 43.5 0.00 0.00 0.00 53 995.1
20190424104531 14 157 20.9 40.2 0.00 0.00 0.00 53 995.3
20190424104029 14 146 25.7 40.2 0.00 0.00 0.00 52 995.4
20190424103531 14 185 22.5 54.7 0.00 0.00 0.00 54 995.6
20190424103028 13 175 24.1 54.7 0.00 0.00 0.00 54 995.6
20190424102536 13 166 22.5 43.5 0.00 0.00 0.00 54 995.6
20190424102026 13 208 12.9 37.0 0.00 0.00 0.00 56 995.7
20190424101532 13 141 22.5 46.7 0.00 0.00 0.00 55 995.9
20190424101104 13 184 20.9 46.7 0.00 0.00 0.00 57 995.9
20190424100527 12 151 20.9 46.7 0.00 0.00 0.00 57 995.9
20190424100034 12 139 17.7 35.4 0.00 0.00 0.00 59 995.9
20190424095537 12 140 16.1 45.1 0.00 0.00 0.00 59 996.1
20190424095027 12 155 19.3 46.7 0.00 0.00 0.00 59 996.1
20190424094533 12 178 29.0 46.7 0.00 0.00 0.00 58 996.3
20190424094023 11 170 32.2 45.1 0.00 0.00 0.00 58 996.5
20190424093526 11 156 24.1 41.8 0.00 0.00 0.00 58 996.5
20190424093022 11 153 29.0 53.1 0.00 0.00 0.00 58 996.5
20190424092528 11 150 16.1 53.1 0.00 0.00 0.00 58 996.5
20190424092030 11 166 19.3 35.4 0.00 0.00 0.00 59 996.9
20190424091540 11 200 20.9 35.4 0.00 0.00 0.00 59 996.9
20190424091105 11 229 16.1 37.0 0.00 0.00 0.00 59 996.8
20190424090525 11 148 17.7 37.0 0.00 0.00 0.00 59 996.8
20190424090024 11 214 19.3 40.2 0.00 0.00 0.00 59 996.6
20190424085529 11 155 24.1 40.2 0.00 0.00 0.00 60 996.3
20190424085028 11 188 14.5 38.6 0.00 0.00 0.00 59 996.3
20190424084531 11 150 22.5 38.6 0.00 0.00 0.00 59 996.3
20190424084028 12 158 20.9 38.6 0.00 0.00 0.00 58 996.3
20190424083532 12 139 20.9 38.6 0.00 0.00 0.00 58 996.1
20190424083030 11 148 20.9 38.6 0.00 0.00 0.00 58 996.1
20190424082531 11 174 12.9 27.4 0.00 0.00 0.00 59 996.2
20190424082023 11 166 16.1 29.0 0.00 0.00 0.00 58 996.3
20190424081525 11 211 14.5 33.8 0.00 0.00 0.00 58 996.4
20190424081100 11 141 12.9 33.8 0.00 0.00 0.00 58 996.4
20190424080543 11 146 9.7 27.4 0.00 0.00 0.00 59 996.5
20190424080038 11 181 12.9 24.1 0.00 0.00 0.00 58 996.4
20190424075524 11 181 12.9 30.6 0.00 0.00 0.00 58 996.5
20190424075041 11 214 19.3 35.4 0.00 0.00 0.00 58 996.5
20190424074540 11 160 19.3 37.0 0.00 0.00 0.00 58 996.5
20190424073524 11 163 16.1 37.0 0.00 0.00 0.00 59 996.5
20190424073024 11 150 20.9 32.2 0.00 0.00 0.00 60 996.5
20190424072531 11 175 11.3 32.2 0.00 0.00 0.00 60 996.5
20190424072032 11 166 19.3 37.0 0.00 0.00 0.00 59 996.5
20190424071533 11 176 24.1 37.0 0.00 0.00 0.00 59 996.5
20190424071048 11 177 22.5 35.4 0.00 0.00 0.00 59 996.5
20190424070530 11 150 20.9 33.8 0.00 0.00 0.00 59 996.5
20190424070049 11 181 16.1 30.6 0.00 0.00 0.00 60 996.5
20190424065535 11 174 17.7 0.0 0.00 0.00 0.00 60 996.6
20190424065057 11 129 17.7 0.0 0.00 0.00 0.00 59 996.7
20190424064524 11 171 16.1 0.0 0.00 0.00 0.00 59 996.6
20190424064030 11 159 16.1 0.0 0.00 0.00 0.00 59 996.7
20190424063535 11 187 14.5 30.6 0.00 0.00 0.00 59 996.7
20190424063027 11 172 14.5 30.6 0.00 0.00 0.00 60 996.6
20190424062533 11 148 20.9 30.6 0.00 0.00 0.00 61 996.6
20190424062028 11 207 17.7 29.0 0.00 0.00 0.00 63 996.7
20190424061528 10 146 11.3 0.0 0.00 0.00 0.00 64 996.8
20190424061114 10 149 14.5 0.0 0.00 0.00 0.00 65 996.7
20190424060533 10 155 14.5 0.0 0.00 0.00 0.00 66 996.6
20190424060033 10 167 12.9 0.0 0.00 0.00 0.00 66 996.7
20190424055539 10 240 14.5 0.0 0.00 0.00 0.00 66 996.6
20190424055024 10 174 16.1 0.0 0.00 0.00 0.00 67 996.7
20190424054527 10 172 16.1 30.6 0.00 0.00 0.00 67 996.8
20190424054023 9 158 19.3 30.6 0.00 0.00 0.00 68 997.0
20190424053534 9 131 17.7 30.6 0.00 0.00 0.00 68 997.1
20190424053042 9 167 14.5 29.0 0.00 0.00 0.00 68 997.1
20190424052541 9 198 12.9 24.1 0.00 0.00 0.00 68 997.2
20190424052040 9 190 12.9 24.1 0.00 0.00 0.00 69 997.1
20190424051529 9 161 11.3 22.5 0.00 0.00 0.00 69 997.1
20190424051059 9 188 8.0 22.5 0.00 0.00 0.00 69 997.4
20190424050537 9 201 11.3 22.5 0.00 0.00 0.00 70 997.4
20190424050038 9 186 9.7 20.9 0.00 0.00 0.00 71 997.3
20190424045524 8 194 8.0 22.5 0.00 0.00 0.00 72 997.3
20190424045022 8 178 8.0 22.5 0.00 0.00 0.00 73 997.3
20190424044530 8 140 8.0 17.7 0.00 0.00 0.00 75 997.4
20190424044035 8 147 9.7 19.3 0.00 0.00 0.00 75 997.5
20190424043523 8 166 12.9 22.5 0.00 0.00 0.00 76 997.5
20190424043040 8 131 14.5 22.5 0.00 0.00 0.00 78 997.6
20190424042527 8 161 11.3 20.9 0.00 0.00 0.00 79 997.6
20190424042026 8 148 12.9 22.5 0.00 0.00 0.00 81 997.5
20190424041534 8 164 14.5 22.5 0.00 0.00 0.00 84 997.6
20190424041056 7 161 11.3 22.5 0.00 0.00 0.00 88 997.5
20190424040025 7 143 4.8 9.7 0.00 0.00 0.00 90 997.6